White Plains, CT

5:49 AM EST on December 10, 2019 (GMT -0500)
Westchester County

Weather History for KHPN - August, 2019

Change the Weather History Date:

Saturday, August 3, 2019

  Actual Average Record
Temperature  
Mean Temperature 74 °F -  
Max Temperature 82 °F 80 °F 96 °F (1975)
Min Temperature 66 °F 63 °F 58 °F (1976)
Cooling Degree Days 9    
Growing Degree Days 24 (Base 50)    
Moisture  
Dew Point 66 °F    
Average Humidity 77    
Maximum Humidity 94    
Minimum Humidity 51    
Precipitation  
Precipitation 0.00 in - - ()
Sea Level Pressure  
Sea Level Pressure 30.00 in    
Wind  
Wind Speed 3 mph (South)    
Max Wind Speed 12 mph    
Max Gust Speed 18 mph    
Visibility 9 miles    
Events Rain , Thunderstorm    
Averages and records for this station are not official NWS values.
T = Trace of Precipitation, MM = Missing Value Source: NWS Daily Summary

Daily Weather History Graph

Daily Weather History Graph

Search for Another Location

Airport or City:

Astronomy

Aug. 03, 2019 Rise Set
Actual Time 5:52 AM EDT 8:09 PM EDT
Civil Twilight 5:21 AM EDT 8:39 PM EDT
Nautical Twilight 4:43 AM EDT 9:17 PM EDT
Astronomical Twilight 4:01 AM EDT 9:59 PM EDT
Moon 8:43 AM EDT (8/3) 10:11 PM EDT (8/3)
Length of Visible Light 15h 18m
Length of Day
14h 16m
Waxing Crescent, 10% of the Moon is Illuminated
Aug 3
Waxing Crescent
Aug 7
First Quarter
Aug 15
Full
Aug 23
Last Quarter
Aug 30
New

Hourly Weather History & Observations

Time (EDT) Temp. Heat Index Dew Point Humidity Pressure Visibility Wind Dir Wind Speed Gust Speed Precip Events Conditions
12:56 AM 68.0 °F - 64.4 °F 88% 30.08 in 10.0 mi Calm Calm - N/A   Clear
1:56 AM 68.0 °F - 66.2 °F 94% 30.08 in 10.0 mi Calm Calm - N/A   Clear
2:56 AM 68.0 °F - 66.2 °F 94% 30.08 in 10.0 mi Calm Calm - N/A   Scattered Clouds
3:56 AM 68.0 °F - 66.2 °F 94% 30.06 in 10.0 mi Calm Calm - N/A   Partly Cloudy
4:52 AM 66.2 °F - 64.4 °F 94% 30.05 in 10.0 mi Calm Calm - N/A   Clear
5:56 AM 68.0 °F - 66.2 °F 94% 30.06 in 9.0 mi Calm Calm - N/A   Mostly Cloudy
6:56 AM 71.6 °F - 69.8 °F 94% 30.06 in 8.0 mi Calm Calm - N/A   Scattered Clouds
8:56 AM 73.4 °F - 69.8 °F 88% 30.06 in 10.0 mi WSW 3.5 mph - N/A   Scattered Clouds
9:41 AM 77.0 °F - 68.0 °F 74% 30.06 in 10.0 mi South 5.8 mph - N/A   Mostly Cloudy
9:56 AM 78.8 °F - 68.0 °F 69% 30.05 in 10.0 mi SSE 6.9 mph - N/A   Mostly Cloudy
10:56 AM 78.8 °F - 66.2 °F 65% 30.04 in 10.0 mi SE 4.6 mph - N/A   Mostly Cloudy
11:56 AM 78.8 °F - 66.2 °F 65% 30.04 in 10.0 mi SE 4.6 mph - N/A   Mostly Cloudy
12:56 PM 82.4 °F 83.9 °F 64.4 °F 54% 29.98 in 10.0 mi Variable 6.9 mph - N/A   Mostly Cloudy
1:56 PM 82.4 °F 83.4 °F 62.6 °F 51% 29.97 in 10.0 mi South 10.4 mph - N/A   Scattered Clouds
2:56 PM 82.4 °F 83.9 °F 64.4 °F 54% 29.96 in 10.0 mi South 10.4 mph - N/A   Scattered Clouds
3:56 PM 82.4 °F 84.6 °F 66.2 °F 58% 29.93 in 10.0 mi SSE 9.2 mph - N/A   Scattered Clouds
5:56 PM 80.6 °F 82.7 °F 66.2 °F 61% 29.92 in 10.0 mi South 8.1 mph - N/A   Clear
6:56 PM 80.6 °F 83.2 °F 68.0 °F 65% 29.92 in 10.0 mi SSW 6.9 mph - N/A   Clear
7:56 PM 77.0 °F - 68.0 °F 74% 29.92 in 10.0 mi SSE 5.8 mph - N/A   Clear
8:56 PM 77.0 °F - 68.0 °F 74% 29.93 in 10.0 mi SSE 5.8 mph - N/A   Clear
9:33 PM 75.2 °F - 68.0 °F 78% 29.96 in 8.0 mi NE 10.4 mph - N/A Thunderstorm Thunderstorm
9:56 PM 73.4 °F - 64.4 °F 73% 29.96 in 8.0 mi NNW 11.5 mph 18.4 mph N/A Thunderstorm Thunderstorm
10:56 PM 68.0 °F - 66.2 °F 94% 29.98 in 2.0 mi North 11.5 mph - N/A Rain , Thunderstorm Thunderstorms and Rain
11:56 PM 68.0 °F - 64.4 °F 88% 29.97 in 1.5 mi NW 9.2 mph 17.3 mph N/A Rain , Thunderstorm Thunderstorms and Rain